Location: Ale�evi?i
(45.1072°N, 15.9925°E)
Time: 14:38:00
(UTC+00:00)

Daily predictions for brighter satellites

Satellite Brightness Start Highest point End
(mag) Time Altitude Azimuth Time Altitude Azimuth Time Altitude Azimuth
USA 238 DEB 4.0 17:59:15 10° NW 18:06:31 78° NE 18:14:06 10° SE
USA 238 4.0 17:59:21 10° NW 18:06:38 78° NE 18:14:12 10° SE
CZ-4C R/B 2.2 18:03:19 10° SSW 18:07:54 47° ESE 18:13:21 10° NE
SL-08 RB Rocket 3.9 18:05:15 10° SSE 18:09:56 83° WSW 18:14:36 10° NNW
Atlas Centaur 2 4.3 18:03:42 10° WSW 18:10:27 28° S 18:17:18 10° SE
Cosmos 1953 3.8 18:06:42 10° SSW 18:10:33 43° WNW 18:14:25 10° N
NOSS 3-2 (A) 4.3 18:04:04 10° NW 18:11:40 84° SW 18:20:17 10° SSE
SAR-Lupe-1 4.0 18:09:22 10° NNE 18:12:58 82° ESE 18:16:33 10° SSW
Cosmos 1825 Rocket 4.4 18:09:06 10° N 18:13:02 32° ENE 18:16:58 10° SE
Cosmos 1331 Rocket 4.1 18:09:39 10° NNW 18:14:48 64° ENE 18:19:58 10° SSE
Cosmos 1300 2.8 18:11:13 10° S 18:14:54 51° E 18:18:37 10° NNE
ARGOS 3.9 18:10:09 10° S 18:15:27 57° W 18:20:46 10° NNW
CZ-4 R/B 3.4 18:12:22 10° SSW 18:16:10 33° W 18:20:01 10° NNW
Lacrosse 5 rocket 1.2 18:12:18 10° SW 18:16:16 78° SE 18:20:30 10° NE
Cosmos 2360 Rocket 2.7 18:13:04 10° NNW 18:18:31 45° ENE 18:23:55 10° SE
CSL-04 Rocket 3.8 18:13:28 10° SSE 18:18:47 79° WSW 18:24:05 10° NNW
Cosmos 1758 Rocket 3.8 18:15:27 10° N 18:19:49 53° ENE 18:24:10 10° SSE
Helios 1A Rocket 3.0 18:16:00 10° S 18:20:03 80° WSW 18:24:10 10° NNW
MetOp-A 4.2 18:17:30 10° SSE 18:22:49 72° ENE 18:28:10 10° N
Cosmos 1602 Rocket 3.7 18:19:17 10° N 18:23:38 82° W 18:28:00 10° S
CENTAUR R/B 3.3 18:17:00 10° NW 18:25:12 87° NE 18:34:08 10° SE
ATLAS 3B R/B 4.0 18:21:14 10° NNW 18:27:07 28° NNE 18:33:12 10° E
USA 215 3.7 18:22:26 10° E 18:28:44 53° NNE 18:35:03 10° NW
CZ-2C R/B 3.3 18:24:07 10° N 18:29:13 60° WNW 18:34:21 10° SSW
Cosmos 2237 4.3 18:23:35 10° NNW 18:29:17 66° ENE 18:34:55 10° SE
SJ-6B 2.8 18:25:48 10° SSE 18:29:26 55° ENE 18:33:06 10° N
SL-16 R/B 2.5 18:24:16 10° NNW 18:29:55 72° WSW 18:35:33 10° SSE
SME Rocket 3.0 18:27:42 10° NNE 18:31:28 88° WNW 18:35:57 10° SSW
Cosmos 482 Debris 3.5 18:31:43 10° SW 18:34:32 39° SSE 18:36:07 15° E
COSMOS 2487 4.0 18:34:56 15° ESE 18:35:42 15° E 18:37:48 10° ENE
Cosmos 2219 Rocket 3.4 18:32:57 10° N 18:37:50 28° NE 18:41:49 14° ESE
Cosmos 2058 4.5 18:39:26 10° NNE 18:42:32 19° ENE 18:44:14 16° E
BREEZE-M DEB (TANK) 3.3 18:40:06 10° SSW 18:44:51 24° SSE 18:46:07 19° ESE
SPOT 3 Rocket 4.3 18:46:12 15° SE 18:49:55 36° ENE 18:54:39 10° N
Cosmos 1455 3.2 18:49:40 19° SE 18:51:20 26° E 18:54:29 10° NNE
Cosmos 1606 Rocket 3.5 18:47:13 10° S 18:51:35 70° E 18:55:56 10° NNE
Cosmos 1408 3.2 18:48:54 10° N 18:52:12 34° ENE 18:53:52 22° SE
ATLAS 5 CENTAUR R/B 2.7 18:52:02 10° WSW 18:55:52 44° NW 19:00:13 10° NNE
BREEZE-M DEB (TANK) 2.5 18:54:12 10° WNW 18:56:28 40° SSW 18:58:10 20° SSE
Cosmos 405 3.6 18:55:07 20° SE 18:56:53 33° E 19:00:03 10° NNE
USA 186 3.2 18:54:39 10° SSW 18:57:45 38° W 19:00:48 10° NNW
Cosmos 2237 Rocket 4.1 18:54:31 10° N 18:57:49 16° NE 19:01:03 10° ENE
In-Cosmos 22 Rocket 4.3 18:52:23 10° N 18:58:13 75° ENE 19:04:02 10° SSE
Cosmos 2098 Rocket 4.4 18:52:13 10° N 18:58:55 61° E 19:05:58 11° SSE
IGS 5A 4.2 19:01:07 23° ESE 19:02:58 35° ENE 19:06:45 10° N
Cosmos 1726 Rocket 3.4 18:59:21 10° S 19:03:44 74° E 19:08:07 10° NNE
ATLAS 5 CENTAUR R/B 0.6 19:02:35 10° NNW 19:04:26 53° NE 19:04:42 47° E
BREEZE-M DEB (TANK) 3.1 19:04:08 10° WNW 19:06:30 30° N 19:07:39 19° NE
Landsat 7 4.4 19:07:11 24° ESE 19:09:31 40° ENE 19:13:58 10° N
Cosmos 1092 Rocket 4.0 19:05:17 10° N 19:11:35 70° E 19:16:45 15° SSE
Cosmos 2333 Rocket 2.5 19:06:01 10° NNW 19:11:42 55° ENE 19:14:55 25° SE
Cosmos 1269 Rocket 4.1 19:06:30 10° SSW 19:11:49 84° WNW 19:17:10 10° NNE
CZ-2C R/B 4.3 19:08:22 10° NNE 19:12:24 32° E 19:13:34 28° SE
NOSS 3-4 (A) 3.3 19:07:31 10° SW 19:13:18 89° SE 19:19:33 10° NE
NOSS 3-4 (C) 3.3 19:07:34 10° SW 19:13:24 88° SE 19:19:40 10° NE
Cosmos 2344 3.7 19:07:53 10° S 19:15:02 47° ESE 19:22:17 10° NE
SL-27 R/B 4.2 19:12:18 10° SW 19:15:36 36° WNW 19:18:51 10° N
Cosmos 2322 Rocket 3.5 19:13:20 10° NW 19:18:34 38° WSW 19:23:47 10° S
Cosmos 2058 Rocket 3.0 19:15:22 14° S 19:18:59 65° E 19:23:19 10° NNE
Resurs 01 Rocket 1.6 19:16:55 26° SSE 19:19:17 66° ENE 19:23:44 10° N
Ariane Rocket 3.4 19:16:29 10° S 19:21:29 64° WSW 19:26:31 10° NNW
Cosmos 1302 Rocket 4.3 19:17:51 10° NNW 19:23:07 65° WSW 19:27:08 17° S
Cosmos 1892 2.9 19:20:37 10° NNW 19:24:22 67° W 19:26:42 22° S
Meteor 2-19 Rocket 4.4 19:18:43 10° N 19:24:53 73° E 19:29:04 22° SSE
Cosmos 2228 4.3 19:21:47 10° SSW 19:25:55 42° WNW 19:30:05 10° N
SL-8 R/B 4.1 19:21:46 10° WNW 19:26:34 60° N 19:29:17 25° E
Cosmos 2322 3.7 19:21:08 10° NNW 19:26:49 73° ENE 19:29:39 30° SE
ATLAS 2AS CENTAUR R/B 2.9 19:19:04 10° SSW 19:26:57 75° ESE 19:34:44 10° NE
Cosmos 1953 Rocket 4.0 19:26:51 10° NNW 19:31:10 58° W 19:34:23 17° S
Cosmos 1818 4.2 19:37:05 34° ESE 19:37:05 34° ESE 19:41:34 10° NE
MetOp-B 4.1 19:35:04 33° SSE 19:37:31 70° ENE 19:42:53 10° N
Meteor 2-10 Rocket 4.0 19:33:16 10° SSW 19:38:22 63° WNW 19:43:42 10° N
OBJECT-B 3.6 19:39:00 10° SW 19:41:08 17° W 19:43:18 10° NW
USA-17 4.3 19:37:23 10° SW 19:41:19 90° NW 19:44:31 10° NE
IRIDIUM 114 4.4 19:44:21 42° SE 19:45:47 56° E 19:50:54 10° NNE
SPOT 5 3.7 19:45:41 29° ENE 19:45:52 29° ENE 19:49:49 10° N
Cosmos 909 Rocket 4.1 19:40:28 10° S 19:46:40 53° ESE 19:52:49 10° NE
Cosmos 1825 2.2 19:44:44 10° NNW 19:48:31 78° W 19:49:07 60° SSW
SL-16 R/B 4.2 19:45:35 10° N 19:48:42 15° NE 19:50:54 12° ENE
Cosmos 2279 Rocket 3.9 19:46:48 31° SSE 19:49:48 64° E 19:55:56 10° NNE
Cosmos 1992 Rocket 3.9 19:45:18 10° NNW 19:50:33 88° WSW 19:52:17 44° SSE
COSMOS 2428 2.7 19:45:39 10° NNW 19:51:25 78° ENE 19:53:17 44° SE
Cosmos 1633 4.3 19:49:17 10° NNE 19:51:14 22° NE 19:51:14 22° NE
IRIDIUM 103 4.2 19:53:29 46° SSE 19:54:54 67° E 20:00:05 10° N
Lacrosse 5 rocket 3.5 19:52:21 10° W 19:55:52 26° NNW 19:59:31 10° NE
NOSS 0 Rocket 4.2 19:50:26 10° NNW 19:56:32 54° ENE 19:58:20 41° ESE
CZ-4C R/B 3.8 19:51:54 10° WSW 19:56:35 34° NW 20:02:09 10° NNE
CARTOSAT-1 3.8 19:58:11 50° ENE 19:58:11 50° ENE 20:02:19 10° N
Atlas Centaur 2 4.5 19:53:27 10° WSW 19:58:59 19° SSW 20:00:55 18° S
Cosmos 2026 Rocket 4.2 19:54:16 10° NNW 20:00:15 65° W 20:03:59 24° SSW
Cosmos 1076 Rocket 3.4 19:57:45 10° N 20:02:08 71° E 20:02:11 71° E
Cosmos 2360 Rocket 3.7 19:57:27 10° NW 20:02:17 30° WSW 20:06:06 14° SSW
Cosmos 1809 Rocket 4.4 19:58:46 10° N 20:04:51 69° E 20:06:26 49° SE
Cosmos 614 Rocket 3.9 20:05:28 58° ESE 20:05:28 58° ESE 20:10:28 10° NNE
Cosmos 1634 Rocket 4.5 20:03:12 10° SSW 20:09:25 60° WNW 20:15:37 10° N
Cosmos 44 3.3 20:09:26 64° SSE 20:09:54 68° ESE 20:15:14 10° NE
COSMOS 2487 4.2 20:08:05 16° WSW 20:10:18 31° WNW 20:13:24 10° N
Cosmos 2151 3.7 20:06:45 10° N 20:10:11 42° NE 20:10:11 42° NE
USA 215 3.4 20:09:26 40° SSE 20:11:41 60° SW 20:18:10 10° NW
IRIDIUM 106 4.3 20:11:46 50° S 20:13:11 85° W 20:18:27 10° N
ARIANE 5 R/B 2.5 20:14:35 87° SE 20:14:38 88° E 20:19:05 10° NNW
Terra 2.5 20:15:14 40° ENE 20:15:14 40° ENE 20:19:21 10° N
ERS-1 Rocket 3.0 20:15:27 60° E 20:15:39 61° ENE 20:20:36 10° N
Cosmos 2266 Rocket 4.1 20:10:03 10° N 20:16:21 56° ENE 20:17:18 51° ESE
ATLAS 3B R/B 2.7 20:11:39 10° NW 20:18:44 88° NE 20:20:51 51° SE
Cosmos 2058 4.1 20:15:41 10° NNW 20:19:35 38° W 20:20:28 33° WSW
Cosmos 2219 Rocket 2.7 20:16:33 10° NW 20:22:05 53° WSW 20:23:34 42° SSW
Cosmos 1655 Rocket 3.9 20:17:37 10° N 20:23:58 74° E 20:25:02 60° SE
SPOT 1/Viking Rocket 3.9 20:22:47 47° SSW 20:24:01 60° WSW 20:29:13 10° NNW
Cosmos 2180 Rocket 4.4 20:26:03 47° SSW 20:28:01 86° W 20:34:13 10° N
Orbus 7S? 4.5 20:25:24 10° WSW 20:28:24 45° NNW 20:34:20 10° NE
Exosat Rocket 4.3 20:22:38 10° NNW 20:29:07 54° WSW 20:30:27 44° SSW
Cosmos 405 Rocket 3.6 20:25:13 10° NNW 20:28:48 49° WNW 20:28:48 49° WNW
RESURS DK-1 3.0 20:30:11 55° NNW 20:30:11 55° NNW 20:33:53 10° NNE
Meteor 2-14 Rocket 4.3 20:25:04 10° N 20:31:10 89° E 20:32:07 66° S
Spot 2 Rocket 3.7 20:31:08 59° SW 20:31:44 64° WSW 20:36:48 10° NNW
Cosmos 2251 Rocket 4.1 20:32:42 25° SW 20:35:48 58° WNW 20:41:06 10° NNE
BREEZE M DEB (TANK) 3.0 20:28:58 10° WSW 20:35:25 59° WNW 20:35:25 59° WNW
BREEZE-M (TANK) 3.8 20:22:18 10° WNW 20:37:28 58° SW 20:38:06 55° SSW
Cosmos 389 Rocket 4.5 20:42:04 28° NNW 20:42:04 28° NNW 20:44:03 10° N
Cosmos 2237 Rocket 2.1 20:37:15 10° NNW 20:42:52 74° ENE 20:42:52 74° ENE
Meteor 2-21 Rocket 4.2 20:40:13 10° N 20:46:18 89° W 20:46:43 79° S
Cosmos 2333 Rocket 3.8 20:51:00 10° NW 20:55:35 25° WSW 20:56:57 23° WSW
Resurs 01 Rocket 4.2 20:54:28 11° WSW 20:56:14 13° W 20:58:23 10° WNW
Cosmos 2227 Rocket 3.2 21:00:02 35° NE 21:00:02 35° NE 21:03:24 10° NNE
SeaSat 1 4.0 20:55:47 10° NE 20:58:00 26° NE 20:58:00 26° NE
Cosmos 2219 3.9 21:03:55 45° NE 21:03:55 45° NE 21:07:46 10° NNE
Meteor 2-16 Rocket 4.4 20:56:41 10° N 21:02:52 80° W 21:03:00 80° WSW
Cosmos 2297 Rocket 2.6 21:07:22 54° NNE 21:07:22 54° NNE 21:11:42 10° NNE
ATLAS 2AS CENTAUR R/B 4.3 21:11:25 10° W 21:18:37 37° NW 21:25:39 10° NNE
Meteor 2-3 Rocket 4.3 21:14:03 10° NNW 21:19:28 52° W 21:19:28 52° W
Meteor 1-27 4.5 21:20:20 67° NW 21:20:20 67° NW 21:25:34 10° N
SPOT 5 4.4 21:24:54 27° WNW 21:24:54 27° WNW 21:27:56 10° NNW
SL-16 R/B 2.8 21:28:16 10° NNW 21:32:47 54° N 21:32:47 54° N
Lacrosse 5 rocket 4.2 21:33:23 10° NW 21:36:15 17° N 21:38:18 13° NNE
Timation 2 Rocket 4.3 21:47:57 65° NW 21:47:57 65° NW 21:54:13 10° NNE
Terra 3.9 21:54:06 21° WNW 21:54:06 21° WNW 21:56:38 10° NW
Cosmos 1745 Rocket 4.5 21:54:43 10° N 21:59:50 55° NNE 21:59:50 55° NNE
ATLAS 3B R/B 4.4 22:03:38 10° WNW 22:08:06 21° WSW 22:08:06 21° WSW
Cosmos 2237 Rocket 4.4 22:22:47 10° WNW 22:24:42 15° WNW 22:24:42 15° WNW
SeaSat 1 4.4 22:33:55 10° N 22:37:46 24° NW 22:37:46 24° NW
Cosmos 2227 Rocket 3.9 22:41:48 26° WNW 22:42:16 26° NW 22:47:00 10° N
Cosmos 2263 Rocket 3.6 22:49:57 32° NE 22:49:57 32° NE 22:52:53 10° NNE
COSMOS 2455 3.7 22:49:02 45° NNW 22:49:02 45° NNW 22:53:52 10° NNE
Cosmos 2297 Rocket 4.3 22:49:06 17° WNW 22:50:48 19° NW 22:54:49 10° N
USA 229 DEB 4.0 22:46:16 10° NW 22:53:15 70° NNE 22:53:15 70° NNE
USA 229 4.0 22:46:22 10° NW 22:53:23 70° NNE 22:53:23 70° NNE
NOSS 3-1 (A) 4.0 23:03:50 10° NW 23:11:15 81° NE 23:11:15 81° NE
Lacrosse 5 rocket 4.2 23:12:55 10° NW 23:13:54 15° NNW 23:13:54 15° NNW
USA 281 3.6 23:22:55 55° NW 23:22:55 55° NW 23:27:59 10° NNW
Cosmos 2074 Rocket 4.5 23:40:50 10° N 23:45:41 56° NNW 23:45:41 56° NNW
